Location: Tucson
(32.2217°N, 110.9265°W)
Time: 04:00:07
(UTC-07:00)

Oscar 11 - Pass Details

Date: 08 December 2021
Orbit: 611 x 625 km, 97.6° (Epoch: 19 January)

Event Time Altitude Azimuth Distance (km) Brightness Sun altitude
Rises 05:35:54 0° 13° (NNE) 2,899 10.5 -20.0°
Reaches altitude 10° 05:38:06 10° 15° (NNE) 1,987 9.7 -19.5°
Maximum altitude 05:42:25 76° 101° (E) 638 7.2 -18.6°
Drops below altitude 10° 05:46:42 10° 187° (S) 1,966 9.7 -17.8°
Sets 05:48:52 0° 189° (S) 2,865 10.6 -17.3°
